PST,Max TemperatureF,Mean TemperatureF,Min TemperatureF,Max Dew PointF,MeanDew PointF,Min DewpointF,Max Humidity, Mean Humidity, Min Humidity, Max Sea Level PressureIn, Mean Sea Level PressureIn, Min Sea Level PressureIn, Max VisibilityMiles, Mean VisibilityMiles, Min VisibilityMiles, Max Wind SpeedMPH, Mean Wind SpeedMPH, Max Gust SpeedMPH,PrecipitationIn, CloudCover, Events, WindDirDegrees
2012-11-1,60,51,42,50,47,42,100,81,62,30.04,29.89,29.79,10,9,2,17,3,22,0.08,4,Rain,204
2012-11-2,62,51,40,51,46,39,100,80,60,30.10,30.06,30.04,10,10,8,12,4,14,T,1,Rain,331
2012-11-3,62,53,43,50,48,43,100,82,64,30.17,30.09,30.04,10,9,6,18,3,22,T,4,,172
2012-11-4,71,59,47,53,51,46,100,74,47,30.28,30.25,30.18,10,10,10,16,6,18,0.00,4,,182
2012-11-5,68,56,44,56,51,43,100,79,58,30.26,30.22,30.17,10,10,10,18,7,23,0.00,0,,293
2012-11-6,61,51,41,51,46,40,100,79,57,30.18,30.01,29.89,10,10,7,9,2,12,0.00,0,,22
2012-11-7,60,47,34,49,39,29,93,63,33,30.10,30.03,29.94,10,10,8,15,4,20,0.02,3,Rain,250
2012-11-8,50,40,30,36,33,29,96,71,46,29.94,29.82,29.75,10,10,10,15,4,17,0.00,5,,300
2012-11-9,44,36,28,37,32,28,100,81,62,29.95,29.88,29.82,10,10,6,7,1,7,T,7,Rain,344
2012-11-10,41,33,25,32,28,24,92,81,70,30.28,30.12,29.96,10,10,9,9,3,13,T,6,Rain,329
2012-11-11,36,29,22,34,28,21,100,95,89,30.36,30.32,30.29,10,5,1,10,2,12,0.02,7,Rain,302
2012-11-12,45,40,35,42,37,34,100,92,83,30.32,30.26,30.21,10,5,2,12,2,13,0.24,8,Rain,320
2012-11-13,44,42,39,38,36,35,92,84,76,30.31,30.27,30.22,10,8,5,10,4,12,0.00,8,,349
2012-11-14,47,43,38,41,37,35,92,84,76,30.39,30.31,30.24,10,9,3,15,2,17,0.00,8,,4
2012-11-15,43,40,37,38,36,34,92,84,76,30.38,30.22,30.06,10,10,8,15,8,17,0.00,8,,325
2012-11-16,47,42,37,39,38,36,100,85,70,30.06,30.01,29.94,10,9,7,7,1,9,0.00,7,,59
2012-11-17,47,43,38,42,39,36,93,82,71,29.92,29.74,29.59,10,9,5,22,3,28,0.02,7,Rain,270
2012-11-18,56,48,39,39,35,31,82,60,38,29.91,29.85,29.77,10,10,10,23,9,32,T,5,Rain,148
2012-11-19,66,59,51,49,40,35,89,62,34,29.81,29.70,29.59,10,10,10,33,16,44,0.12,7,Rain,173
2012-11-20,58,52,45,52,47,41,96,82,68,29.79,29.73,29.67,10,10,5,23,8,30,0.35,7,Rain,160
2012-11-21,54,47,40,42,36,33,100,73,46,30.29,29.93,29.63,10,10,9,33,11,40,0.04,2,,223
2012-11-22,52,43,33,37,33,31,92,69,46,30.46,30.40,30.31,10,10,10,21,6,24,0.00,0,,182
2012-11-23,44,38,32,43,36,31,96,89,82,30.37,30.23,30.12,10,10,10,8,3,9,0.00,4,Rain,99
2012-11-24,53,45,36,44,41,35,100,80,59,30.21,30.16,30.10,10,10,9,21,8,26,T,5,Rain,307
2012-11-25,47,36,25,37,30,23,100,77,53,30.38,30.31,30.19,10,6,0,8,1,8,T,2,Fog-Snow,350
2012-11-26,36,29,22,31,28,22,100,91,82,30.38,30.31,30.26,10,10,5,9,2,10,0.00,6,,92
2012-11-27,35,34,32,31,30,30,92,87,82,30.31,30.25,30.16,10,10,6,8,2,9,0.00,8,,24
2012-11-28,35,33,31,32,30,28,96,89,82,30.16,29.97,29.84,10,10,8,12,4,14,0.02,8,Rain,3
2012-11-29,37,33,29,36,33,28,96,91,85,29.93,29.79,29.64,10,8,5,8,2,10,0.04,7,Rain,324
2012-11-30,51,42,32,44,36,32,100,90,80,29.62,29.58,29.55,10,6,1,10,2,13,0.01,5,,351